New Delhi, India

10:29 AM IST on March 30, 2017 (GMT +0530)
Indira Gandhi International Airport

Weather History for VIDP - April, 2013

Change the Weather History Date:

Thursday, April 4, 2013

  Actual Average Record
Temperature  
Mean Temperature 76 °F -  
Max Temperature 89 °F 97 °F 105 °F (2016)
Min Temperature 64 °F 73 °F 59 °F (1997)
Cooling Degree Days 12    
Growing Degree Days 26 (Base 50)    
Moisture  
Dew Point 51 °F    
Average Humidity 47    
Maximum Humidity 94    
Minimum Humidity 16    
Precipitation  
Precipitation 0.00 in - - ()
Sea Level Pressure  
Sea Level Pressure 29.80 in    
Wind  
Wind Speed 5 mph ()    
Max Wind Speed 16 mph    
Max Gust Speed 21 mph    
Visibility 1.8 miles    
Events Fog    
Averages and records for this station are not official NWS values.
T = Trace of Precipitation, MM = Missing Value Source: Averaged Metar Reports

Daily Weather History Graph

Daily Weather History Graph

Search for Another Location

Airport or City:

Trip Planner

Search our weather history database for the weather conditions in past years. The results will help you decide how hot, cold, wet, or windy it might be!

Date:

Astronomy

Apr. 04, 2013 Rise Set
Actual Time 6:08 AM IST 6:41 PM IST
Civil Twilight 5:44 AM IST 7:04 PM IST
Nautical Twilight 5:16 AM IST 7:32 PM IST
Astronomical Twilight 4:48 AM IST 8:01 PM IST
Moon 1:45 AM IST (4/4) 12:56 PM IST (4/4)
Length of Visible Light 13h 20m
Length of Day
12h 32m
Last Quarter, 38% of the Moon is Illuminated
Apr 4
Last Quarter
Apr 10
New
Apr 18
First Quarter
Apr 26
Full
May 2
Last Quarter

Hourly Weather History & Observations

Time (IST) Temp. Heat Index Dew Point Humidity Pressure Visibility Wind Dir Wind Speed Gust Speed Precip Events Conditions
12:30 AM 71.6 °F - 57.2 °F 60% 29.83 in 0.7 mi Calm Calm - N/A   Smoke
1:00 AM 71.6 °F - 57.2 °F 60% 29.83 in 0.7 mi Calm Calm - N/A   Smoke
1:30 AM 71.6 °F - 59.0 °F 64% 29.83 in 0.7 mi Calm Calm - N/A   Smoke
2:00 AM 69.8 °F - 60.8 °F 73% 29.80 in 0.6 mi Calm Calm - N/A   Smoke
3:00 AM 68.0 °F - 62.6 °F 83% 29.80 in 0.4 mi WSW 4.6 mph - N/A Fog Shallow Fog
3:30 AM 68.0 °F - 62.6 °F 83% 29.80 in 0.4 mi WNW 3.5 mph - N/A Fog Shallow Fog
4:00 AM 68.0 °F - 62.6 °F 83% 29.80 in 0.4 mi WSW 3.5 mph - N/A Fog Shallow Fog
4:30 AM 66.2 °F - 62.6 °F 88% 29.80 in 0.4 mi SW 3.5 mph - N/A Fog Shallow Fog
5:00 AM 66.2 °F - 62.6 °F 88% 29.80 in 0.4 mi West 4.6 mph - N/A Fog Shallow Fog
6:00 AM 64.4 °F - 62.6 °F 94% 29.80 in 0.5 mi West 3.5 mph - N/A Fog Shallow Fog
6:30 AM 64.4 °F - 62.6 °F 94% 29.83 in 0.4 mi WSW 4.6 mph - N/A Fog Shallow Fog
7:00 AM 64.4 °F - 62.6 °F 94% 29.83 in 0.4 mi WSW 4.6 mph - N/A Fog Shallow Fog
7:30 AM 66.2 °F - 62.6 °F 88% 29.83 in 0.4 mi WSW 4.6 mph - N/A Fog Shallow Fog
8:00 AM 68.0 °F - 62.6 °F 83% 29.86 in 0.4 mi West 6.9 mph - N/A Fog Shallow Fog
9:00 AM 73.4 °F - 59.0 °F 61% 29.86 in 0.6 mi West 6.9 mph - N/A   Haze
10:30 AM 80.6 °F 80.3 °F 53.6 °F 39% 29.86 in 1.7 mi NW 9.2 mph - N/A   Haze
11:30 AM 84.2 °F - 48.2 °F 29% 29.86 in 2.2 mi NW 13.8 mph - N/A   Haze
12:00 PM 86.0 °F - 46.4 °F 25% 29.86 in 2.5 mi NW 11.5 mph - N/A   Haze
12:30 PM 87.8 °F - 44.6 °F 22% 29.83 in 2.5 mi WNW 13.8 mph - N/A   Haze
1:00 PM 87.8 °F - 41.0 °F 19% 29.83 in 2.8 mi WNW 16.1 mph - N/A   Haze
2:00 PM 89.6 °F - 39.2 °F 17% 29.80 in 3.1 mi WNW 9.2 mph 20.7 mph N/A   Haze
2:30 PM 89.6 °F - 39.2 °F 17% 29.77 in 3.1 mi NW 9.2 mph 20.7 mph N/A   Haze
3:00 PM 89.6 °F - 39.2 °F 17% 29.77 in 3.1 mi WNW 9.2 mph 20.7 mph N/A   Haze
3:30 PM 89.6 °F - 37.4 °F 16% 29.74 in 3.1 mi NW 9.2 mph 20.7 mph N/A   Haze
4:00 PM 89.6 °F - 39.2 °F 17% 29.74 in 3.1 mi NW 16.1 mph 20.7 mph N/A   Haze
4:30 PM 89.6 °F - 39.2 °F 17% 29.74 in 3.1 mi NW 9.2 mph 20.7 mph N/A   Haze
5:00 PM 89.6 °F - 39.2 °F 17% 29.74 in 2.8 mi NW 9.2 mph 20.7 mph N/A   Haze
5:30 PM 87.8 °F - 39.2 °F 18% 29.74 in 2.8 mi NW 9.2 mph 20.7 mph N/A   Haze
6:00 PM 87.8 °F - 41.0 °F 19% 29.74 in 2.8 mi NW 11.5 mph - N/A   Haze
6:30 PM 86.0 °F - 42.8 °F 22% 29.74 in 2.8 mi NW 12.7 mph - N/A   Haze
7:00 PM 82.4 °F - 44.6 °F 26% 29.77 in 2.8 mi WNW 9.2 mph - N/A   Haze
7:30 PM 82.4 °F - 46.4 °F 28% 29.77 in 2.8 mi NW 8.1 mph - N/A   Haze
8:00 PM 80.6 °F - 48.2 °F 32% 29.77 in 2.8 mi WNW 6.9 mph - N/A   Haze
8:30 PM 80.6 °F - 48.2 °F 32% 29.77 in 2.5 mi WNW 6.9 mph - N/A   Haze
9:00 PM 80.6 °F - 50.0 °F 34% 29.80 in - WNW 9.2 mph - N/A   Haze
10:00 PM 78.8 °F - 51.8 °F 39% 29.80 in 1.9 mi NW 8.1 mph - N/A   Haze
10:30 PM 77.0 °F - 51.8 °F 41% 29.80 in 1.9 mi NW 9.2 mph - N/A   Haze
11:00 PM 77.0 °F - 51.8 °F 41% 29.80 in 1.9 mi NW 9.2 mph - N/A   Haze
11:30 PM 77.0 °F - 51.8 °F 41% 29.77 in 1.9 mi WNW 9.2 mph - N/A   Haze